Tracking 17152 objects as of 28-April-2015
HD Live streaming from Space Station

OPS 6182 (DMSP 5D-1 F2)

Track OPS 6182 (DMSP 5D-1 F2) now!
10-day predictions
OPS 6182 (DMSP 5D-1 F2) is classified as:


NORAD ID: 10820
Int'l Code: 1978-042A
Perigee: 776.4 km
Apogee: 789.5 km
Inclination: 98.6 °
Period: 100.4 minutes
Semi major axis: 7153 km
RCS: 4.1055 m2 (large)
Launch date: May 1, 1978
Source: United States (US)
Your satellite tracking list
Your tracking list is empty




NASA's NSSDC Master Catalog

Two Line Element Set (TLE):
1 10820U 78042A   15117.50570334  .00000511  00000-0  19552-3 0  9996
2 10820 098.5560 301.4628 0009191 193.4797 166.6144 14.34776496929245

Source of the keplerian elements: AFSPC

N2YO: 366